Total_Precipitation_Accumulation
0.04 0.01 0.00 0.15 0.48 0.35 0.45 0.34 0.24 0.28 0.27 0.45 0.59 0.62 0.36 0.13 0.03 0.06 0.07 0.21 0.29 0.31 0.25 0.32 0.39 0.19 0.12 0.02 0.01 0.01 0.01 0.03 0.04 0.03 0.02 0.02 0.03 0.05 0.07 0.08 0.20 0.04 0.03
0.06 0.05 0.07 0.11 0.11 0.24 0.37 0.46 0.24 0.23 0.30 0.49 0.68 0.51 0.28 0.07 0.06 0.12 0.17 0.21 0.30 0.41 0.35 0.29 0.12 0.04 0.02 0.01 0.02 0.03 0.03 0.05 0.04 0.04 0.02 0.02 0.04 0.07 0.04 0.07 0.16 0.03 0.08
0.08 0.07 0.08 0.09 0.04 0.08 0.24 0.30 0.21 0.26 0.48 0.70 0.57 0.24 0.13 0.14 0.23 0.22 0.14 0.17 0.30 0.36 0.25 0.06 0.02 0.01 0.01 0.01 0.01 0.03 0.06 0.06 0.06 0.03 0.05 0.04 0.01 0.02 0.01 0.00 0.00 0.00 0.00
0.07 0.15 0.12 0.32 0.30 0.27 0.26 0.16 0.18 0.22 0.59 0.55 0.53 0.43 0.35 0.28 0.27 0.21 0.19 0.25 0.34 0.23 0.17 0.04 0.03 0.03 0.05 0.09 0.08 0.05 0.08 0.12 0.09 0.09 0.07 0.01 0.00 0.00 0.00 0.01 0.01 0.00 0.01
0.08 0.13 0.20 0.47 0.32 0.33 0.30 0.23 0.21 0.31 0.43 0.30 0.47 0.46 0.46 0.45 0.31 0.45 0.30 0.18 0.24 0.19 0.16 0.08 0.10 0.07 0.11 0.14 0.10 0.03 0.01 0.02 0.05 0.09 0.01 0.07 0.01 0.00 0.03 0.16 0.11 0.03 0.03
0.08 0.12 0.44 0.39 0.36 0.35 0.32 0.25 0.19 0.41 0.51 0.39 0.44 0.37 0.44 0.80 0.70 0.58 0.37 0.25 0.10 0.05 0.03 0.06 0.10 0.14 0.12 0.10 0.06 0.01 0.00 0.02 0.09 0.21 0.11 0.02 0.09 0.07 0.02 0.08 0.08 0.02 0.03
0.09 0.13 0.31 0.37 0.39 0.38 0.35 0.28 0.25 0.35 0.37 0.35 0.42 0.71 0.75 0.76 0.71 0.53 0.20 0.06 0.02 0.01 0.00 0.01 0.03 0.05 0.05 0.02 0.00 0.00 0.02 0.13 0.12 0.15 0.07 0.03 0.01 0.10 0.09 0.01 0.03 0.06 0.20
0.03 0.15 0.35 0.47 0.52 0.55 0.43 0.31 0.27 0.31 0.26 0.39 0.57 0.90 0.59 0.57 0.69 0.42 0.15 0.03 0.00 0.00 0.00 0.00 0.00 0.00 0.00 0.00 0.00 0.03 0.07 0.06 0.03 0.09 0.12 0.03 0.00 0.00 0.00 0.00 0.07 0.36 1.36
0.03 0.10 0.19 0.36 0.45 0.30 0.37 0.46 0.29 0.24 0.31 0.42 0.59 0.80 0.65 0.45 0.22 0.08 0.04 0.03 0.00 0.00 0.00 0.00 0.00 0.01 0.01 0.00 0.00 0.03 0.04 0.06 0.05 0.09 0.12 0.06 0.03 0.00 0.00 0.01 0.14 0.37 1.17
0.08 0.18 0.23 0.31 0.51 0.44 0.29 0.50 0.26 0.15 0.24 0.43 0.55 0.46 0.33 0.07 0.03 0.01 0.02 0.00 0.00 0.00 0.00 0.00 0.00 0.00 0.02 0.02 0.00 0.04 0.07 0.07 0.06 0.09 0.09 0.05 0.04 0.00 0.00 0.04 0.17 0.35 0.45
0.02 0.06 0.12 0.22 0.23 0.23 0.30 0.30 0.16 0.11 0.22 0.26 0.23 0.15 0.11 0.05 0.03 0.01 0.00 0.00 0.00 0.00 0.00 0.00 0.00 0.00 0.00 0.00 0.00 0.03 0.10 0.20 1.16 0.32 0.13 0.06 0.04 0.00 0.00 0.04 0.12 0.27 0.29
0.02 0.04 0.05 0.12 0.11 0.11 0.16 0.24 0.14 0.12 0.14 0.21 0.13 0.03 0.07 0.14 0.01 0.00 0.00 0.00 0.00 0.00 0.00 0.00 0.00 0.00 0.00 0.01 0.02 0.03 0.17 0.18 0.38 0.19 0.10 0.02 0.01 0.00 0.01 0.21 0.25 0.37 0.33
0.04 0.04 0.00 0.04 0.09 0.05 0.11 0.08 0.07 0.13 0.06 0.01 0.01 0.02 0.03 0.04 0.00 0.01 0.01 0.00 0.00 0.00 0.00 0.00 0.00 0.00 0.00 0.02 0.10 0.17 0.13 0.21 0.70 0.29 0.07 0.05 0.00 0.00 0.07 0.21 0.33 0.46 0.37
0.02 0.03 0.01 0.01 0.08 0.06 0.01 0.00 0.02 0.21 0.14 0.02 0.00 0.00 0.00 0.00 0.00 0.00 0.02 0.07 0.04 0.02 0.02 0.09 0.00 0.01 0.01 0.03 0.12 0.10 0.01 0.10 0.20 0.13 0.11 0.17 0.04 0.00 0.06 0.19 0.34 0.44 0.47
0.02 0.00 0.00 0.00 0.05 0.04 0.02 0.01 0.01 0.07 0.05 0.01 0.00 0.00 0.01 0.01 0.03 0.08 0.06 0.20 0.47 0.09 0.06 0.07 0.02 0.04 0.05 0.10 0.10 0.07 0.03 0.07 0.08 0.07 0.09 0.24 0.14 0.02 0.01 0.07 0.86 0.37 0.33
0.03 0.01 0.00 0.00 0.00 0.01 0.02 0.03 0.00 0.01 0.00 0.01 0.00 0.02 0.03 0.05 0.08 0.12 0.29 0.15 0.72 0.42 0.05 0.02 0.02 0.03 0.04 0.15 0.09 0.05 0.04 0.06 0.11 0.08 0.16 0.37 0.11 0.01 0.04 0.07 0.76 0.18 0.17
0.00 0.00 0.00 0.00 0.00 0.00 0.01 0.02 0.00 0.00 0.00 0.00 0.00 0.04 0.03 0.09 0.24 0.32 0.45 0.27 0.10 0.03 0.01 0.01 0.04 0.05 0.08 0.10 0.08 0.09 0.09 0.07 0.10 0.13 0.23 0.17 0.04 0.00 0.06 0.16 0.24 0.06 0.06
0.00 0.04 0.00 0.00 0.00 0.00 0.00 0.01 0.02 0.03 0.01 0.01 0.00 0.01 0.01 0.15 0.03 0.15 0.48 0.09 0.02 0.03 0.02 0.03 0.03 0.07 0.07 0.07 0.07 0.05 0.10 0.44 0.17 0.49 0.28 0.07 0.06 0.04 0.01 0.05 0.07 0.07 0.06
0.01 0.03 0.00 0.00 0.00 0.00 0.00 0.02 0.21 0.03 0.02 0.02 0.00 0.00 0.00 0.01 0.04 0.12 0.39 0.04 0.01 0.02 0.04 0.06 0.05 0.07 0.05 0.07 0.26 0.18 0.10 0.11 0.11 0.13 0.05 0.05 0.06 0.03 0.05 0.02 0.03 0.06 0.04
0.01 0.03 0.00 0.00 0.00 0.00 0.00 0.06 0.16 0.03 0.03 0.02 0.00 0.00 0.00 0.00 0.00 0.01 0.03 0.00 0.00 0.00 0.01 0.00 0.00 0.00 0.01 0.01 0.01 0.04 0.19 0.20 0.07 0.07 0.09 0.02 0.03 0.03 0.07 0.13 0.53 0.23 0.03
0.01 0.00 0.00 0.00 0.00 0.00 0.00 0.02 0.03 0.03 0.02 0.01 0.00 0.00 0.00 0.01 0.00 0.00 0.01 0.00 0.00 0.00 0.00 0.00 0.00 0.00 0.00 0.00 0.00 0.02 0.09 0.22 0.10 0.06 0.02 0.04 0.05 0.05 0.06 0.11 0.17 0.19 0.08
0.01 0.00 0.00 0.00 0.00 0.00 0.00 0.00 0.00 0.00 0.00 0.00 0.02 0.04 0.00 0.00 0.00 0.00 0.00 0.00 0.00 0.00 0.00 0.00 0.00 0.00 0.00 0.01 0.00 0.00 0.10 0.40 0.05 0.09 0.04 0.07 0.02 0.14 0.15 0.14 0.09 0.07 0.14
0.02 0.00 0.00 0.00 0.00 0.00 0.00 0.00 0.00 0.03 0.02 0.09 0.09 0.01 0.01 0.01 0.00 0.00 0.00 0.00 0.00 0.00 0.01 0.00 0.00 0.02 0.03 0.01 0.00 0.00 0.02 0.04 0.01 0.08 0.08 0.05 0.02 0.07 0.05 0.10 0.23 0.11 0.10
0.17 0.00 0.00 0.00 0.00 0.00 0.00 0.00 0.01 0.01 0.04 0.09 0.03 0.02 0.00 0.00 0.01 0.00 0.00 0.00 0.00 0.00 0.02 0.00 0.00 0.02 0.06 0.02 0.01 0.01 0.00 0.00 0.00 0.03 0.06 0.07 0.04 0.01 0.02 0.23 0.62 0.20 0.11
0.08 0.02 0.00 0.00 0.00 0.01 0.00 0.04 0.08 0.02 0.05 0.12 0.05 0.05 0.02 0.01 0.01 0.02 0.01 0.00 0.00 0.03 0.04 0.07 0.08 0.07 0.05 0.02 0.00 0.00 0.00 0.00 0.00 0.02 0.03 0.04 0.05 0.00 0.03 0.03 0.09 0.13 0.20
0.04 0.07 0.05 0.00 0.00 0.01 0.00 0.03 0.07 0.10 0.12 0.31 0.14 0.06 0.03 0.01 0.02 0.05 0.03 0.07 0.09 0.09 0.07 0.11 0.16 0.11 0.06 0.04 0.02 0.00 0.02 0.02 0.00 0.01 0.01 0.00 0.00 0.01 0.05 0.11 0.07 0.15 0.16